Regional Weather Roundup
Issued by NWS Sterling, VA

Current Version | Previous Version | Graphics & Text | Print | Product List | Glossary On
Versions: 1 2 3 4 5 6 7 8 9 10 11 12 13 14 15 16 17 18 19 20 21 22 23 24 25 26 27 28
000
ASUS41 KLWX 210212
RWRLWX

REGIONAL WEATHER ROUNDUP
NATIONAL WEATHER SERVICE BALTIMORE MD/WASHINGTON DC
1000 PM EDT SUN JUN 20 2021

Note: "FAIR" indicates few or no clouds below 12,000 feet
with no significant weather and/or obstructions to visibility.
 TC=TEMPERATURE CELSIUS

 * =Non NWS site. Station does not report precipitation (e.g. rain,
    snow, etc.), thunder, or fog.

DCZ001-MDZ009-015-VAZ040>042-051-053>054-210300-
WASHINGTON METRO

CITY           SKY/WX    TMP DP  RH WIND       PRES   REMARKS
WASHINGTON NAT PTCLDY    81  70  69 S12       29.79S
DULLES         PTCLDY    80  70  71 SW7       29.79S
ANDREWS AFB    PTCLDY    78  70  76 S8        29.78S
FT BELVOIR     PTCLDY    79  72  77 SE3       29.79S
QUANTICO       PTCLDY    80  71  74 S6        29.80S
COLLEGE PARK*  PTCLDY    81  69  66 S3        29.78S
LEESBURG*      PTCLDY    79  70  73 S5        29.80F
MANASSAS*      PTCLDY    76  71  85 S3        29.80S
GAITHERSBURG*  PTCLDY    80  70  71 VRB6      29.81S

$$

MDZ006>007-011-014-210300-
BALTIMORE METRO

CITY           SKY/WX    TMP DP  RH WIND       PRES   REMARKS
BWI AIRPORT    MOCLDY    82  70  66 S3        29.78R
MARTIN STATE   CLEAR     81  77  89 S6        29.80R
ANNAPOLIS      PTCLDY    80  73  79 S6        29.79R
ABERDEEN*      PTCLDY    79  72  79 S9        29.76R
FORT MEADE*    PTCLDY   N/A N/A N/A CALM      29.81S

$$

MDZ012-015-019>023-210300-
MARYLAND EASTERN SHORE

CITY           SKY/WX    TMP DP  RH WIND       PRES   REMARKS
OCEAN CITY     MOCLDY    76  73  91 SW9       29.84R
SALISBURY      MOCLDY    76  70  82 S7        29.83R
CAMBRIDGE*       N/A     77  75  94 S7        29.82R
EASTON*        CLEAR     79  79 100 S9        29.85R

$$

MDZ017>025-210300-
SOUTHERN MARYLAND

CITY           SKY/WX    TMP DP  RH WIND       PRES   REMARKS
PATUXENT RIVER PTCLDY    79  72  79 S8        29.81R
ST INIGOES     PTCLDY    81  71  71 S7        29.81R
LEONARDTOWN*   PTCLDY    75  70  83 CALM      29.83R

$$

MDZ003>005-210300-
NORTH CENTRAL MARYLAND

CITY           SKY/WX    TMP DP  RH WIND       PRES   REMARKS
FREDERICK*     PTCLDY    81  70  69 S3        29.78F
HAGERSTOWN APT PTCLDY    82  69  64 S8        29.78S
WESTMINSTER*   PTCLDY    82  72  69 S5        29.80F

$$

MDZ501>502-210300-
WESTERN MARYLAND

CITY           SKY/WX    TMP DP  RH WIND       PRES   REMARKS
OAKLAND*       CLEAR     68  63  83 S5        29.89F
CUMBERLAND*    CLEAR     72  65  80 CALM      29.82F

$$

VAZ025>031-210300-
SHENANDOAH VALLEY

CITY           SKY/WX    TMP DP  RH WIND       PRES   REMARKS
WINCHESTER*    PTCLDY    77  68  73 S6        29.77F
FRONT ROYAL*   PTCLDY    77  70  78 S3        29.78F
LURAY*         CLEAR     75  68  78 S6        29.81S
NEW MARKET*    CLEAR     77  70  79 CALM      29.80S
STAUNTON*      CLEAR     74  68  81 S5        29.85F
WAYNESBORO*    CLEAR     72  68  87 S9        29.86S

$$

WVZ021-048>050-054>055-210300-
EASTERN WEST VIRGINIA PANHANDLE

CITY           SKY/WX    TMP DP  RH WIND       PRES   REMARKS
MARTINSBURG    PTCLDY    77  69  76 S5        29.76F
PETERSBURG*    CLEAR     74  74 100 CALM      29.80F

$$

VAZ036>039-050-210300-
CENTRAL FOOTHILLS

CITY           SKY/WX    TMP DP  RH WIND       PRES   REMARKS
CHARLOTTESVILL CLEAR     76  70  82 S6        29.82S
CULPEPER*      PTCLDY    77  70  78 CALM      29.82S
ORANGE*        PTCLDY    73  70  88 S3        29.82S
GORDONSVILLE*  PTCLDY    74  74 100 CALM      29.82R
WARRENTON*     PTCLDY    77  71  82 CALM      29.80S

$$

VAZ055>057-210300-
NORTH AND CENTRAL PIEDMONT

CITY           SKY/WX    TMP DP  RH WIND       PRES   REMARKS
FREDERICKSBRG* PTCLDY    76  69  79 SE7       29.80R
STAFFORD*      PTCLDY    79  68  69 CALM      29.85S

$$

NCZ024-NYZ072-PAZ021-071-VAZ022-071-210300-
OTHER REGIONAL OBSERVATIONS

CITY           SKY/WX    TMP DP  RH WIND       PRES   REMARKS
NEW YORK CITY  PTCLDY    80  67  64 CALM      29.82R
PHILADELPHIA   CLOUDY    81  70  69 S6        29.79R
PITTSBURGH     MOCLDY    79  67  66 S6        29.74S
ROANOKE        CLEAR     79  69  71 SE5       29.86R
RICHMOND       MOCLDY    78  72  81 S9        29.82S
RALEIGH        LGT RAIN  74  74 100 CALM      29.84S

$$

ANZ530>537-210300-
MARINE OBSERVATIONS

STATION/POSITION TIME  TEMP    WIND        PRES
                       AIR SEA DIR/SP/G
                 (UTC) (F)     (DEG/KT/KT) (MB)
THOMAS PT LIGHT  0200   77 74  150/ 16/ 16 1009.7R
TOLCHESTER       0130   81 79  190/  8/ 12 1008.9R
GOOSES REEF      0154   76 77  190/ 10/ 14 1010.5R
COVE POINT       0130   78     150/  8/ 10 1009.4R
BALT HARBOR      0130   81 75  210/  2/  5 1008.1R
BALT KEY BRIDGE  0130   82     180/ 10/ 13 1008.4R
WASH DC CHANNEL  0130   82 79  180/  7/ 10 1008.9R
DAHLGREN         0124   79 81  220/  4/  6 1008.7
LEWISETTA        0124   78 78  210/ 11/ 12 1009.6
SOLOMONS ISLAND  0130   78 77  190/  5/  8 1009.3R
PINEY POINT      0124          180/  5/  9   N/A
CAMBRIDGE PIER   0130   78 78  170/  7/ 10 1009.4R
BISHOPS HEAD     0130   78 81  200/ 13/ 17 1009.4R
CHESAPEAKE CITY  0130   81 79  200/  3/  4 1008.7R

$$




USA.gov is the U.S. government's official web portal to all federal, state and local government web resources and services.